When you browse on this site, cookies collect data to enhance your experience and personalize the content and advertising you see.
Visit our Privacy Policy to learn more. By continuing to use the site, you agree to this use of cookies and data.
  • In Hungary
  • List of Countries
  • For 7 days
  • Water Temperature
  • Satellite Maps
  • Weather Map
  • News
  • Weather Widgets
  • user-avatar
    Login

    Hourly Weather Blaj

    Today, 19 March, Tuesday

    Time Temperature Precipitation Wind Pressure Humidity
    00:00 +11°C° 0 mm 1 mps 731 mmHg 75%
    01:00 +11°C° 0 mm 1 mps 731 mmHg 77%
    02:00 +10°C° 0 mm 1 mps 731 mmHg 78%
    03:00 +10°C° 0 mm 1 mps 731 mmHg 79%
    04:00 +10°C° 0 mm 1 mps 732 mmHg 80%
    05:00 +9°C° 0 mm 2 mps 732 mmHg 81%
    06:00 +8°C° 0.2 mm 2 mps 732 mmHg 81%
    07:00 +9°C° 0.2 mm 1 mps 732 mmHg 81%
    08:00 +9°C° 0.2 mm 1 mps 733 mmHg 81%
    09:00 +9°C° 0.6 mm 1 mps 733 mmHg 81%
    10:00 +9°C° 0.6 mm 1 mps 733 mmHg 80%
    11:00 +9°C° 0.6 mm 1 mps 733 mmHg 80%
    12:00 +9°C° 0.8 mm 1 mps 733 mmHg 80%
    13:00 +9°C° 0.8 mm 1 mps 733 mmHg 80%
    14:00 +9°C° 0.8 mm 1 mps 733 mmHg 80%
    15:00 +9°C° 0.2 mm 1 mps 733 mmHg 79%
    16:00 +10°C° 0.2 mm 1 mps 734 mmHg 77%
    17:00 +9°C° 0.2 mm 0 mps 734 mmHg 76%
    18:00 +10°C° 0.7 mm 1 mps 734 mmHg 80%
    19:00 +9°C° 0.7 mm 1 mps 735 mmHg 83%
    20:00 +8°C° 0.7 mm 1 mps 735 mmHg 87%
    21:00 +8°C° 0.2 mm 1 mps 735 mmHg 87%
    22:00 +8°C° 0.2 mm 1 mps 736 mmHg 86%
    23:00 +8°C° 0.2 mm 1 mps 736 mmHg 85%

    Tomorrow, 20 March, Wednesday

    Time Temperature Precipitation Wind Pressure Humidity
    00:00 +6°C° 0 mm 0 mps 736 mmHg 85%
    01:00 +6°C° 0 mm 0 mps 737 mmHg 85%
    02:00 +6°C° 0 mm 0 mps 737 mmHg 84%
    03:00 +6°C° 0 mm 0 mps 737 mmHg 83%
    04:00 +6°C° 0 mm 0 mps 737 mmHg 83%
    05:00 +5°C° 0 mm 0 mps 738 mmHg 82%
    06:00 +6°C° 0 mm 0 mps 738 mmHg 80%
    07:00 +6°C° 0 mm 0 mps 738 mmHg 77%
    08:00 +7°C° 0 mm 1 mps 739 mmHg 75%
    09:00 +8°C° 0 mm 1 mps 739 mmHg 72%
    10:00 +9°C° 0 mm 1 mps 740 mmHg 69%
    11:00 +9°C° 0 mm 2 mps 740 mmHg 66%
    12:00 +10°C° 0 mm 2 mps 740 mmHg 63%
    13:00 +12°C° 0 mm 2 mps 740 mmHg 61%
    14:00 +13°C° 0 mm 2 mps 740 mmHg 59%
    15:00 +13°C° 0 mm 2 mps 740 mmHg 59%
    16:00 +12°C° 0 mm 2 mps 740 mmHg 60%
    17:00 +12°C° 0 mm 2 mps 740 mmHg 61%
    18:00 +10°C° 0 mm 2 mps 741 mmHg 65%
    19:00 +10°C° 0 mm 1 mps 741 mmHg 70%
    20:00 +9°C° 0 mm 1 mps 741 mmHg 74%
    21:00 +9°C° 0 mm 1 mps 742 mmHg 75%
    22:00 +9°C° 0 mm 1 mps 742 mmHg 75%
    23:00 +8°C° 0 mm 1 mps 742 mmHg 75%

    Day after tomorrow, 21 March, Thursday

    Time Temperature Precipitation Wind Pressure Humidity
    00:00 +7°C° 0 mm 0 mps 742 mmHg 76%
    01:00 +6°C° 0 mm 0 mps 742 mmHg 77%
    02:00 +6°C° 0 mm 0 mps 742 mmHg 79%
    03:00 +5°C° 0 mm 0 mps 742 mmHg 80%
    04:00 +6°C° 0 mm 1 mps 742 mmHg 80%
    05:00 +5°C° 0 mm 1 mps 742 mmHg 81%
    06:00 +6°C° 0 mm 1 mps 742 mmHg 79%
    07:00 +6°C° 0 mm 1 mps 743 mmHg 77%
    08:00 +7°C° 0 mm 1 mps 743 mmHg 74%
    09:00 +8°C° 0 mm 1 mps 743 mmHg 69%
    10:00 +10°C° 0 mm 1 mps 743 mmHg 64%
    11:00 +11°C° 0 mm 1 mps 743 mmHg 59%
    12:00 +12°C° 0 mm 1 mps 743 mmHg 54%
    13:00 +13°C° 0 mm 1 mps 743 mmHg 49%
    14:00 +14°C° 0 mm 1 mps 742 mmHg 44%
    15:00 +14°C° 0 mm 1 mps 742 mmHg 42%
    16:00 +14°C° 0 mm 2 mps 742 mmHg 41%
    17:00 +14°C° 0 mm 2 mps 742 mmHg 39%
    18:00 +13°C° 0 mm 2 mps 742 mmHg 44%
    19:00 +11°C° 0 mm 1 mps 742 mmHg 49%
    20:00 +10°C° 0 mm 1 mps 742 mmHg 54%
    21:00 +9°C° 0 mm 1 mps 742 mmHg 55%
    22:00 +9°C° 0 mm 1 mps 742 mmHg 56%
    23:00 +8°C° 0 mm 1 mps 742 mmHg 57%

    22 March, Friday

    Time Temperature Precipitation Wind Pressure Humidity
    00:00 +8°C° 0 mm 1 mps 742 mmHg 57%
    01:00 +6°C° 0 mm 0 mps 742 mmHg 57%
    02:00 +6°C° 0 mm 0 mps 742 mmHg 57%
    03:00 +6°C° 0 mm 0 mps 742 mmHg 58%
    04:00 +6°C° 0 mm 0 mps 742 mmHg 59%
    05:00 +5°C° 0 mm 0 mps 742 mmHg 60%
    06:00 +6°C° 0 mm 0 mps 742 mmHg 58%
    07:00 +6°C° 0 mm 0 mps 742 mmHg 57%
    08:00 +7°C° 0 mm 0 mps 742 mmHg 55%
    09:00 +9°C° 0 mm 0 mps 742 mmHg 52%
    10:00 +11°C° 0 mm 0 mps 742 mmHg 49%
    11:00 +13°C° 0 mm 1 mps 742 mmHg 45%
    12:00 +14°C° 0 mm 1 mps 742 mmHg 44%
    13:00 +15°C° 0 mm 1 mps 742 mmHg 42%
    14:00 +16°C° 0 mm 1 mps 741 mmHg 41%
    15:00 +16°C° 0 mm 1 mps 741 mmHg 41%
    16:00 +16°C° 0 mm 1 mps 741 mmHg 41%
    17:00 +16°C° 0 mm 1 mps 741 mmHg 42%
    18:00 +15°C° 0 mm 1 mps 741 mmHg 46%
    19:00 +14°C° 0 mm 1 mps 741 mmHg 51%
    20:00 +13°C° 0 mm 1 mps 741 mmHg 56%
    21:00 +12°C° 0 mm 1 mps 741 mmHg 59%
    22:00 +11°C° 0 mm 1 mps 741 mmHg 62%
    23:00 +10°C° 0 mm 1 mps 741 mmHg 65%

    23 March, Saturday

    Time Temperature Precipitation Wind Pressure Humidity
    00:00 +10°C° 0 mm 1 mps 741 mmHg 66%
    01:00 +9°C° 0 mm 1 mps 741 mmHg 68%
    02:00 +8°C° 0 mm 0 mps 741 mmHg 69%
    03:00 +9°C° 0 mm 1 mps 741 mmHg 70%
    04:00 +8°C° 0 mm 1 mps 740 mmHg 71%
    05:00 +8°C° 0 mm 1 mps 740 mmHg 72%
    06:00 +9°C° 0 mm 1 mps 740 mmHg 70%
    07:00 +9°C° 0 mm 1 mps 740 mmHg 67%
    08:00 +10°C° 0 mm 1 mps 740 mmHg 65%
    09:00 +11°C° 0 mm 0 mps 740 mmHg 60%
    10:00 +13°C° 0 mm 0 mps 740 mmHg 54%
    11:00 +14°C° 0 mm 0 mps 740 mmHg 49%
    12:00 +15°C° 0 mm 0 mps 740 mmHg 46%
    13:00 +18°C° 0 mm 1 mps 740 mmHg 43%
    14:00 +19°C° 0 mm 1 mps 739 mmHg 40%
    15:00 +19°C° 0 mm 1 mps 739 mmHg 40%
    16:00 +19°C° 0 mm 1 mps 739 mmHg 40%
    17:00 +19°C° 0 mm 1 mps 738 mmHg 40%
    18:00 +18°C° 0 mm 1 mps 739 mmHg 45%
    19:00 +15°C° 0 mm 1 mps 739 mmHg 51%
    20:00 +14°C° 0 mm 1 mps 739 mmHg 56%
    21:00 +13°C° 0 mm 1 mps 739 mmHg 58%
    22:00 +12°C° 0 mm 1 mps 739 mmHg 59%
    23:00 +11°C° 0 mm 0 mps 739 mmHg 61%

    24 March, Sunday

    Time Temperature Precipitation Wind Pressure Humidity
    00:00 +11°C° 0 mm 1 mps 739 mmHg 62%
    01:00 +11°C° 0 mm 1 mps 739 mmHg 63%
    02:00 +10°C° 0 mm 1 mps 739 mmHg 64%
    03:00 +10°C° 0 mm 1 mps 738 mmHg 65%
    04:00 +10°C° 0 mm 1 mps 738 mmHg 67%
    05:00 +9°C° 0 mm 1 mps 738 mmHg 68%
    06:00 +10°C° 0 mm 1 mps 738 mmHg 66%
    07:00 +11°C° 0 mm 1 mps 738 mmHg 64%
    08:00 +11°C° 0 mm 1 mps 738 mmHg 62%
    09:00 +13°C° 0 mm 1 mps 738 mmHg 56%
    10:00 +15°C° 0 mm 1 mps 738 mmHg 50%
    11:00 +18°C° 0 mm 1 mps 737 mmHg 44%
    12:00 +19°C° 0 mm 1 mps 737 mmHg 40%
    13:00 +19°C° 0 mm 2 mps 737 mmHg 36%
    14:00 +20°C° 0 mm 2 mps 736 mmHg 33%
    15:00 +20°C° 0 mm 2 mps 736 mmHg 33%
    16:00 +20°C° 0 mm 3 mps 735 mmHg 33%
    17:00 +20°C° 0 mm 3 mps 735 mmHg 34%
    18:00 +18°C° 0 mm 3 mps 734 mmHg 40%
    19:00 +16°C° 0 mm 3 mps 734 mmHg 47%
    20:00 +14°C° 0 mm 2 mps 734 mmHg 54%
    21:00 +14°C° 0 mm 2 mps 734 mmHg 57%
    22:00 +13°C° 0 mm 2 mps 733 mmHg 61%
    23:00 +12°C° 0 mm 2 mps 733 mmHg 64%
    Show more